Location: Foligno
(42.9600°N, 12.7050°E)
Time: 18:49:53
(UTC+01:00)

ISS - Visible Passes

Search period start: 26 January 2021 00:00
Search period end: 05 February 2021 00:00
Orbit: 418 x 421 km, 51.6° (Epoch: 27 January)

Date Brightness Start Highest point End Pass type
(mag) Time Alt. Az. Time Alt. Az. Time Alt. Az.
26 Jan -1.8 18:48:39 10° NW 18:51:09 19° N 18:51:38 18° N visible
27 Jan -1.8 18:00:58 10° WNW 18:03:36 20° N 18:06:14 10° NE visible
27 Jan -0.9 19:38:36 10° NW 19:39:13 13° NNW 19:39:13 13° NNW visible
28 Jan -1.9 18:51:12 10° NW 18:53:43 19° N 18:53:50 19° N visible
29 Jan -1.8 18:03:42 10° NW 18:06:09 18° N 18:08:28 11° NE visible
29 Jan -1.0 19:40:40 10° NW 19:41:27 15° NW 19:41:27 15° NW visible
30 Jan -2.3 18:53:21 10° NW 18:56:07 25° NNE 18:56:07 25° NNE visible
31 Jan -2.1 18:05:59 10° NW 18:08:40 21° N 18:10:50 13° ENE visible
31 Jan -1.3 19:42:36 10° NW 19:43:49 20° NW 19:43:49 20° NW visible
01 Feb -3.3 18:55:16 10° NW 18:58:31 42° NNE 18:58:36 42° NNE visible
02 Feb -2.7 18:07:57 10° NW 18:11:01 31° NNE 18:13:29 14° E visible
02 Feb -1.6 19:44:40 10° WNW 19:46:29 27° W 19:46:29 27° W visible
03 Feb -3.8 18:57:12 10° WNW 19:00:36 81° SSW 19:01:31 45° SE visible
04 Feb -3.7 18:09:48 10° NW 18:13:10 64° NNE 18:16:32 10° ESE visible
04 Feb -1.2 19:47:20 10° W 19:49:41 18° SW 19:49:43 18° SW visible
